Terug naar catalogus

IRIDE-MS2-HEO-4

ActiefWetenschapSSO
NORAD 64582·PAYLOAD·🇮🇹 Italy

Gelanceerd Jun 23, 2025 vanaf Vandenberg Space Force Base

Loading…

Volgende Passages (komende 24 uur)

TLE

VersSource: Space-Track

Epoch: Sep 14, 2026, 22:03 UTC

1 64582U 25135BG  26257.91924505  .00001447  00000-0  14846-3 0  9990
2 64582  97.7801  11.0683 0002258  73.3606 286.7861 14.91951090 67279

Volg IRIDE-MS2-HEO-4 in realtime met AllMySat

Download on the App Store